Flag for United Kingdom Weather past 2 weeks in Slough, England, United Kingdom

Now
70 °F

Passing clouds.


Feels Like: 70 °F
Forecast: 56 / 75 °F
Wind: 10 mph from Northwest

Location: London City Airport

Current Time: Jul 30, 2014 at 1:02:07 PM

Latest Report: Jul 30, 2014 at 12:20 PM


Visibility: N/A

Pressure: 30.01 "Hg

Humidity: 50%

Dew point: 50 °F

Location of SloughLocation

Historic Weather in Slough — Graph

°F

Slough temperature yesterday

Maximum temperature yesterday: 79 °F (at 3:50 PM)
Minimum temperature yesterday: 63 °F (at 1:20 AM)
Average temperature yesterday: 70 °F

Past Weeks' High & Low Weather Summary

 TemperatureHumidityPressure
High88 °F (Jul 18, 1:50 PM)100% (Jul 18, 3:20 AM)30.21 "Hg (Jul 18, 3:20 AM)
Low61 °F (Jul 16, 4:50 AM)30% (Jul 24, 6:20 PM)29.71 "Hg (Jul 19, 5:20 PM)
Average71 °F67%30.01 "Hg
* Reported Jul 15 11:20 AM — Jul 30 11:50 AM, Slough, Weather by CustomWeather, © 2014

Note: Actual official high and low records may vary slightly from our data, if they occured in-between our weather recording intervals... More about our weather records

Advertising

Slough weather history for previous 24 hours

 ConditionsComfort  
Time TempWeatherWind HumidityBarometerVisibility
11:50 AM
Jul 30
70 °FPassing clouds.8 mph50%30.01 "HgN/A
11:20 AM68 °FScattered clouds.10 mph53%30.01 "HgN/A
10:50 AM66 °FScattered clouds.10 mph56%30.01 "HgN/A
10:20 AM66 °FPartly sunny.12 mph60%30.01 "HgN/A
9:50 AM66 °FPartly sunny.7 mph64%30.01 "HgN/A
9:20 AM64 °FPartly sunny.10 mph68%30.01 "HgN/A
8:50 AM66 °FPassing clouds.8 mph68%30.01 "HgN/A
8:20 AM64 °FPassing clouds.8 mph64%30.01 "HgN/A
7:50 AM64 °FPassing clouds.8 mph68%30.01 "HgN/A
7:20 AM63 °FSunny.8 mph73%30.01 "Hg10 mi
6:50 AM63 °FPassing clouds.7 mph68%30.01 "HgN/A
6:20 AM61 °FSunny.6 mph72%30.01 "Hg10 mi
5:50 AM61 °FCool.6 mph72%30.01 "HgN/A
5:20 AM63 °FMild.6 mph68%29.98 "HgN/A
4:50 AM63 °FMild.6 mph68%29.98 "HgN/A
4:20 AM63 °FMild.8 mph68%29.98 "HgN/A
3:50 AM64 °FPassing clouds.9 mph64%29.98 "HgN/A
3:20 AM64 °FPassing clouds.8 mph68%30.01 "HgN/A
2:50 AM66 °FOvercast.9 mph60%30.01 "HgN/A
2:20 AM66 °FOvercast.10 mph64%30.01 "HgN/A
1:50 AM66 °FMild.8 mph64%29.98 "HgN/A
1:20 AM68 °FOvercast.10 mph60%29.98 "HgN/A
12:50 AM68 °FMild.7 mph69%30.01 "HgN/A
12:20 AM68 °FMild.5 mph69%29.98 "HgN/A
11:50 PM
Jul 29
68 °FMild.6 mph69%29.98 "HgN/A
11:20 PM70 °FMild.7 mph64%29.98 "HgN/A
10:50 PM70 °FMild.8 mph64%29.98 "HgN/A
10:20 PM72 °FMild.10 mph61%29.98 "HgN/A
9:50 PM72 °FMild.10 mph57%29.98 "HgN/A
9:20 PM73 °FSunny.13 mph53%29.95 "Hg10 mi
8:50 PM75 °FSunny.12 mph47%29.95 "Hg10 mi
8:20 PM77 °FSunny.10 mph42%29.95 "Hg10 mi
7:50 PM79 °FPassing clouds.8 mph39%29.92 "HgN/A
7:20 PM79 °FSunny.8 mph37%29.92 "Hg10 mi
6:50 PM79 °FSunny.10 mph39%29.92 "Hg10 mi
6:20 PM79 °FPassing clouds.9 mph42%29.92 "HgN/A
5:50 PM79 °FPassing clouds.9 mph45%29.95 "HgN/A
5:20 PM79 °FSunny.9 mph42%29.95 "Hg10 mi
4:50 PM77 °FPassing clouds.7 mph44%29.95 "HgN/A
4:20 PM79 °FPassing clouds.7 mph42%29.95 "HgN/A
3:50 PM79 °FSunny.13 mph42%29.95 "Hg10 mi
3:20 PM77 °FPassing clouds.6 mph39%29.98 "HgN/A
2:50 PM77 °FSunny.7 mph39%29.98 "Hg10 mi
2:20 PM77 °FPassing clouds.8 mph39%29.98 "HgN/A
1:50 PM75 °FPassing clouds.7 mph39%29.98 "HgN/A
1:20 PM75 °FPassing clouds.8 mph41%29.98 "HgN/A
Weather by CustomWeather, © 2014

See weather overviewHow to use our weather pages